Flag for U.S.A. Weather past 2 weeks in Bentonville, Arkansas, U.S.A.

Now
70 °F

Clear.


Feels Like: 70 °F
Forecast: 69 / 86 °F
Wind: No wind

Location: Bentonville Weather Observing Station

Current Time: Jul 5, 2015 at 3:16:11 AM

Latest Report: Jul 5, 2015 at 2:35 AM


Visibility: 7 mi

Pressure: 30.03 "Hg

Humidity: 88%

Dew point: 66 °F

Location of BentonvilleLocation

Historic Weather in Bentonville — Graph

°F

Bentonville temperature yesterday

Maximum temperature yesterday: 86 °F (at 5:35 PM)
Minimum temperature yesterday: 66 °F (at 5:35 AM)
Average temperature yesterday: 78 °F

Past Weeks' High & Low Weather Summary

 TemperatureHumidityPressure
High91 °F (Jun 23, 4:15 PM)94% (Jul 4, 5:35 AM)30.20 "Hg (Jul 4, 5:35 AM)
Low61 °F (Jun 28, 5:55 AM)40% (Jun 29, 12:55 PM)29.85 "Hg (Jul 2, 3:55 AM)
Average78 °F70%30.01 "Hg
* Reported Jun 20 2:15 AM — Jul 5 2:15 AM, Bentonville, Weather by CustomWeather, © 2015

Note: Actual official high and low records may vary slightly from our data, if they occured in-between our weather recording intervals... More about our weather records

Advertising

Bentonville weather history for previous 24 hours

 ConditionsComfort  
Time TempWeatherWind HumidityBarometerVisibility
2:15 AM
Sun, Jul 5
N/AClear.5 mphN/A30.02 "Hg7 mi
1:55 AMN/AClear.No windN/A30.03 "Hg7 mi
1:35 AM72 °FClear.No wind83%30.03 "Hg7 mi
1:15 AM72 °FClear.No wind83%30.03 "Hg8 mi
12:55 AM72 °FClear.No wind83%30.03 "Hg8 mi
12:35 AM72 °FClear.5 mph83%30.02 "Hg7 mi
12:15 AM72 °FClear.5 mph83%30.02 "Hg6 mi
11:55 PM
Sat, Jul 4
73 °FClear.5 mph78%30.02 "Hg6 mi
10:55 PM73 °FClear.5 mph78%30.02 "Hg8 mi
10:35 PM73 °FClear.7 mph83%30.01 "Hg7 mi
10:15 PM75 °FClear.7 mph74%30.00 "Hg7 mi
9:55 PM75 °FClear.5 mph74%29.99 "Hg10 mi
9:35 PM77 °FSunny.6 mph69%29.98 "Hg10 mi
9:15 PM79 °FSunny.6 mph65%29.98 "Hg10 mi
8:55 PM79 °FSunny.7 mph65%29.97 "Hg10 mi
8:35 PM81 °FSunny.3 mph62%29.97 "Hg10 mi
8:15 PM81 °FSunny.5 mph62%29.98 "Hg10 mi
7:55 PM81 °FSunny.6 mph58%29.97 "Hg10 mi
7:35 PM81 °FSunny.6 mph58%29.97 "Hg10 mi
7:15 PM82 °FSunny.6 mph55%29.97 "Hg10 mi
6:55 PM84 °FSunny.6 mph51%29.96 "Hg10 mi
6:35 PM82 °FSunny.7 mph55%29.96 "Hg10 mi
6:15 PM84 °FPassing clouds.5 mph51%29.96 "Hg10 mi
5:55 PM82 °FScattered clouds.6 mph55%29.96 "Hg10 mi
5:35 PM86 °FBroken clouds.7 mph52%29.97 "Hg10 mi
5:15 PM84 °FPassing clouds.7 mph55%29.97 "Hg10 mi
4:55 PM84 °FScattered clouds.6 mph55%29.97 "Hg10 mi
4:35 PM84 °FMostly cloudy.3 mph51%29.98 "Hg10 mi
4:15 PM82 °FMostly cloudy.7 mph55%29.98 "Hg10 mi
3:55 PM84 °FBroken clouds.3 mph51%29.98 "Hg10 mi
3:35 PM84 °FBroken clouds.6 mph51%29.99 "Hg10 mi
3:15 PM84 °FScattered clouds.3 mph51%29.99 "Hg10 mi
2:55 PM84 °FBroken clouds.3 mph51%29.99 "Hg10 mi
2:35 PM84 °FPartly sunny.3 mph51%30.00 "Hg10 mi
2:15 PM82 °FScattered clouds.5 mph55%30.00 "Hg10 mi
1:55 PM82 °FPassing clouds.6 mph55%30.00 "Hg10 mi
1:35 PM82 °FSunny.3 mph55%30.01 "Hg10 mi
1:15 PM82 °FPassing clouds.8 mph58%30.01 "Hg10 mi
12:55 PM82 °FPartly sunny.5 mph58%30.02 "Hg10 mi
12:35 PM81 °FScattered clouds.3 mph62%30.02 "Hg10 mi
12:15 PM82 °FScattered clouds.6 mph62%30.03 "Hg10 mi
11:55 AM82 °FBroken clouds.6 mph66%30.03 "Hg10 mi
11:35 AM81 °FBroken clouds.6 mph70%30.03 "Hg10 mi
11:15 AM79 °FBroken clouds.6 mph65%30.03 "Hg8 mi
10:55 AM79 °FScattered clouds.3 mph65%30.02 "Hg10 mi
10:35 AM79 °FPartly sunny.6 mph70%30.03 "Hg10 mi
10:15 AM77 °FPartly sunny.3 mph74%30.03 "Hg10 mi
9:55 AM77 °FScattered clouds.5 mph74%30.02 "Hg10 mi
9:35 AM75 °FPartly sunny.7 mph78%30.03 "Hg10 mi
9:15 AM75 °FPassing clouds.8 mph78%30.02 "Hg10 mi
8:55 AM73 °FPartly sunny.9 mph83%30.02 "Hg10 mi
8:35 AM73 °FPartly sunny.8 mph83%30.02 "Hg10 mi
8:15 AM72 °FPartly sunny.7 mph88%30.02 "Hg10 mi
7:55 AM72 °FPartly sunny.8 mph88%30.01 "Hg9 mi
7:35 AM72 °FLow clouds.5 mph83%30.01 "Hg7 mi
7:15 AM70 °FLow clouds.6 mph88%30.00 "Hg9 mi
6:55 AM70 °FLow clouds.3 mph88%30.00 "Hg7 mi
6:35 AM70 °FMostly cloudy.No wind83%29.99 "Hg1 mi
6:15 AM68 °FLow clouds.No wind88%29.99 "Hg0 mi
5:55 AM68 °FLow clouds.No wind88%29.99 "Hg1 mi
5:35 AM66 °FPassing clouds.No wind94%29.98 "Hg2 mi
5:15 AMN/AClear.No windN/A29.97 "Hg4 mi
4:55 AM70 °FPassing clouds.No wind83%29.96 "Hg4 mi
4:35 AMN/APassing clouds.No windN/A29.96 "Hg1 mi
4:15 AMN/AClear.No windN/A29.96 "Hg6 mi
3:55 AMN/AClear.No windN/A29.96 "Hg7 mi
3:35 AMN/AClear.No windN/A29.96 "Hg7 mi
3:15 AMN/AClear.5 mphN/A29.96 "Hg5 mi
Weather by CustomWeather, © 2015

See weather overviewHow to use our weather pages